Time,TemperatureF,DewpointF,PressureIn,WindDirection,WindDirectionDegrees,WindSpeedMPH,WindSpeedGustMPH,Humidity,HourlyPrecipIn,Conditions,Clouds,dailyrainin,SolarRadiationWatts/m^2,SoftwareType,DateUTC
2013-05-02 00:11:00,73.9,71.0,29.95,WSW,241,8.0,-999.0,90,-99.99,,,0.13,0,weatherlink.com 1.10,2013-05-02 04:11:00,
2013-05-02 00:27:00,72.9,70.0,29.95,East,81,0.0,-999.0,91,-99.99,,,0.42,0,weatherlink.com 1.10,2013-05-02 04:27:00,
2013-05-02 00:42:00,72.6,70.0,29.94,East,80,0.0,-999.0,92,-99.99,,,0.60,0,weatherlink.com 1.10,2013-05-02 04:42:00,
2013-05-02 00:57:00,72.2,70.0,29.93,East,80,0.0,-999.0,92,-99.99,,,0.61,0,weatherlink.com 1.10,2013-05-02 04:57:00,
2013-05-02 01:12:00,72.0,70.0,29.93,East,80,0.0,-999.0,93,-99.99,,,0.61,0,weatherlink.com 1.10,2013-05-02 05:12:00,
2013-05-02 01:27:00,71.5,69.0,29.91,East,82,0.0,-999.0,93,-99.99,,,0.61,0,weatherlink.com 1.10,2013-05-02 05:27:00,
2013-05-02 01:42:00,71.2,69.0,29.90,East,91,0.0,-999.0,93,-99.99,,,0.61,0,weatherlink.com 1.10,2013-05-02 05:42:00,
2013-05-02 01:57:00,71.2,69.0,29.90,East,91,0.0,-999.0,93,-99.99,,,0.61,0,weatherlink.com 1.10,2013-05-02 05:57:00,
2013-05-02 02:12:00,71.3,69.0,29.90,East,91,0.0,-999.0,93,-99.99,,,0.61,0,weatherlink.com 1.10,2013-05-02 06:12:00,
2013-05-02 02:27:00,71.3,69.0,29.91,East,91,0.0,-999.0,93,-99.99,,,0.61,0,weatherlink.com 1.10,2013-05-02 06:27:00,
2013-05-02 02:42:00,71.3,70.0,29.91,East,91,0.0,-999.0,94,-99.99,,,0.61,0,weatherlink.com 1.10,2013-05-02 06:42:00,
2013-05-02 02:57:00,71.4,70.0,29.90,East,91,0.0,-999.0,94,-99.99,,,0.61,0,weatherlink.com 1.10,2013-05-02 06:57:00,
2013-05-02 03:12:00,71.6,70.0,29.90,East,91,0.0,-999.0,94,-99.99,,,0.61,0,weatherlink.com 1.10,2013-05-02 07:12:00,
2013-05-02 03:27:00,71.9,70.0,29.90,ESE,112,0.0,-999.0,94,-99.99,,,0.61,0,weatherlink.com 1.10,2013-05-02 07:27:00,
2013-05-02 03:42:00,71.9,70.0,29.89,ESE,112,0.0,-999.0,94,-99.99,,,0.61,0,weatherlink.com 1.10,2013-05-02 07:42:00,
2013-05-02 03:57:00,71.8,70.0,29.90,ESE,112,0.0,-999.0,94,-99.99,,,0.61,0,weatherlink.com 1.10,2013-05-02 07:57:00,
2013-05-02 04:12:00,71.7,70.0,29.89,ESE,112,0.0,-999.0,94,-99.99,,,0.61,0,weatherlink.com 1.10,2013-05-02 08:12:00,
2013-05-02 04:27:00,71.6,70.0,29.89,ESE,112,0.0,-999.0,94,-99.99,,,0.61,0,weatherlink.com 1.10,2013-05-02 08:27:00,
2013-05-02 04:42:00,71.7,70.0,29.88,ESE,113,0.0,-999.0,94,-99.99,,,0.61,0,weatherlink.com 1.10,2013-05-02 08:42:00,
2013-05-02 04:57:00,72.0,70.0,29.88,ESE,113,0.0,-999.0,94,-99.99,,,0.61,0,weatherlink.com 1.10,2013-05-02 08:57:00,
2013-05-02 05:12:00,72.5,71.0,29.88,ESE,113,0.0,-999.0,95,-99.99,,,0.61,0,weatherlink.com 1.10,2013-05-02 09:12:00,
2013-05-02 05:27:00,72.8,71.0,29.88,SE,126,0.0,-999.0,94,-99.99,,,0.61,0,weatherlink.com 1.10,2013-05-02 09:27:00,
2013-05-02 05:42:00,72.5,71.0,29.89,NE,39,1.0,-999.0,94,-99.99,,,0.61,0,weatherlink.com 1.10,2013-05-02 09:42:00,
2013-05-02 05:57:00,71.8,70.0,29.89,ENE,76,0.0,-999.0,94,-99.99,,,0.61,0,weatherlink.com 1.10,2013-05-02 09:57:00,
2013-05-02 06:12:00,71.3,70.0,29.89,SE,131,0.0,-999.0,94,-99.99,,,0.61,0,weatherlink.com 1.10,2013-05-02 10:12:00,
2013-05-02 06:27:00,71.1,69.0,29.89,SE,126,0.0,-999.0,94,-99.99,,,0.61,0,weatherlink.com 1.10,2013-05-02 10:27:00,
2013-05-02 06:42:00,71.0,69.0,29.88,SE,126,0.0,-999.0,94,-99.99,,,0.61,0,weatherlink.com 1.10,2013-05-02 10:42:00,
2013-05-02 06:57:00,71.1,69.0,29.88,North,5,0.0,-999.0,94,-99.99,,,0.61,0,weatherlink.com 1.10,2013-05-02 10:57:00,
2013-05-02 07:12:00,71.2,69.0,29.89,North,5,0.0,-999.0,94,-99.99,,,0.61,40,weatherlink.com 1.10,2013-05-02 11:12:00,
2013-05-02 07:27:00,71.3,70.0,29.90,North,5,0.0,-999.0,94,-99.99,,,0.61,65,weatherlink.com 1.10,2013-05-02 11:27:00,
2013-05-02 07:42:00,72.1,70.0,29.90,North,5,0.0,-999.0,94,-99.99,,,0.61,65,weatherlink.com 1.10,2013-05-02 11:42:00,
2013-05-02 07:57:00,72.8,71.0,29.90,North,5,0.0,-999.0,94,-99.99,,,0.61,65,weatherlink.com 1.10,2013-05-02 11:57:00,
2013-05-02 08:12:00,73.6,72.0,29.91,NE,46,0.0,-999.0,95,-99.99,,,0.61,149,weatherlink.com 1.10,2013-05-02 12:12:00,
2013-05-02 08:27:00,74.1,72.0,29.90,NE,46,0.0,-999.0,94,-99.99,,,0.61,118,weatherlink.com 1.10,2013-05-02 12:27:00,
2013-05-02 08:42:00,74.2,72.0,29.90,NE,48,0.0,-999.0,94,-99.99,,,0.61,86,weatherlink.com 1.10,2013-05-02 12:42:00,
2013-05-02 08:57:00,74.4,73.0,29.90,NE,53,0.0,-999.0,94,-99.99,,,0.61,105,weatherlink.com 1.10,2013-05-02 12:57:00,
2013-05-02 09:12:00,74.7,73.0,29.90,NE,53,0.0,-999.0,94,-99.99,,,0.61,109,weatherlink.com 1.10,2013-05-02 13:12:00,
2013-05-02 09:27:00,75.0,73.0,29.90,ENE,77,0.0,-999.0,94,-99.99,,,0.61,151,weatherlink.com 1.10,2013-05-02 13:27:00,
2013-05-02 09:42:00,75.2,73.0,29.91,SE,142,0.0,-999.0,94,-99.99,,,0.61,135,weatherlink.com 1.10,2013-05-02 13:42:00,
2013-05-02 09:57:00,76.0,74.0,29.91,SE,127,1.0,-999.0,93,-99.99,,,0.61,288,weatherlink.com 1.10,2013-05-02 13:57:00,
2013-05-02 10:12:00,77.1,74.0,29.90,East,86,0.0,-999.0,91,-99.99,,,0.61,128,weatherlink.com 1.10,2013-05-02 14:12:00,
2013-05-02 10:27:00,77.6,74.0,29.90,SE,125,0.0,-999.0,89,-99.99,,,0.61,130,weatherlink.com 1.10,2013-05-02 14:27:00,
2013-05-02 10:43:00,77.9,75.0,29.90,East,83,1.0,-999.0,89,-99.99,,,0.61,404,weatherlink.com 1.10,2013-05-02 14:43:00,
2013-05-02 10:58:00,79.0,75.0,29.90,ESE,105,0.0,-999.0,87,-99.99,,,0.61,452,weatherlink.com 1.10,2013-05-02 14:58:00,
2013-05-02 11:13:00,79.7,75.0,29.90,East,96,0.0,-999.0,84,-99.99,,,0.61,306,weatherlink.com 1.10,2013-05-02 15:13:00,
2013-05-02 11:28:00,79.6,74.0,29.90,ENE,74,0.0,-999.0,82,-99.99,,,0.61,246,weatherlink.com 1.10,2013-05-02 15:28:00,
2013-05-02 11:43:00,79.9,74.0,29.89,East,86,1.0,-999.0,83,-99.99,,,0.61,403,weatherlink.com 1.10,2013-05-02 15:43:00,
2013-05-02 11:58:00,80.3,74.0,29.89,ESE,109,0.0,-999.0,82,-99.99,,,0.61,345,weatherlink.com 1.10,2013-05-02 15:58:00,
2013-05-02 12:13:00,80.1,74.0,29.89,East,98,0.0,-999.0,82,-99.99,,,0.61,239,weatherlink.com 1.10,2013-05-02 16:13:00,
2013-05-02 12:28:00,79.7,73.0,29.89,NNE,25,0.0,-999.0,81,-99.99,,,0.61,169,weatherlink.com 1.10,2013-05-02 16:28:00,
2013-05-02 12:43:00,79.0,73.0,29.89,ESE,103,0.0,-999.0,82,-99.99,,,0.61,202,weatherlink.com 1.10,2013-05-02 16:43:00,
2013-05-02 12:58:00,79.0,73.0,29.87,ESE,115,0.0,-999.0,82,-99.99,,,0.61,425,weatherlink.com 1.10,2013-05-02 16:58:00,
2013-05-02 13:13:00,80.5,74.0,29.86,SE,126,1.0,-999.0,80,-99.99,,,0.61,483,weatherlink.com 1.10,2013-05-02 17:13:00,
2013-05-02 13:28:00,81.1,74.0,29.86,East,92,0.0,-999.0,79,-99.99,,,0.61,262,weatherlink.com 1.10,2013-05-02 17:28:00,
2013-05-02 13:43:00,80.6,73.0,29.86,East,99,0.0,-999.0,78,-99.99,,,0.61,221,weatherlink.com 1.10,2013-05-02 17:43:00,
2013-05-02 13:58:00,80.2,74.0,29.86,East,101,4.0,-999.0,80,-99.99,,,0.61,267,weatherlink.com 1.10,2013-05-02 17:58:00,
2013-05-02 14:13:00,80.2,74.0,29.86,East,85,0.0,-999.0,80,-99.99,,,0.61,221,weatherlink.com 1.10,2013-05-02 18:13:00,
2013-05-02 14:28:00,77.7,71.0,29.86,ESE,105,5.0,-999.0,79,-99.99,,,0.64,16,weatherlink.com 1.10,2013-05-02 18:28:00,
2013-05-02 14:43:00,75.5,71.0,29.86,ESE,107,0.0,-999.0,85,-99.99,,,0.79,19,weatherlink.com 1.10,2013-05-02 18:43:00,
2013-05-02 14:58:00,74.7,71.0,29.84,ESE,107,0.0,-999.0,87,-99.99,,,0.86,35,weatherlink.com 1.10,2013-05-02 18:58:00,
2013-05-02 15:13:00,74.5,71.0,29.84,ESE,107,1.0,-999.0,88,-99.99,,,0.86,16,weatherlink.com 1.10,2013-05-02 19:13:00,
2013-05-02 15:28:00,74.1,71.0,29.83,NNE,30,0.0,-999.0,90,-99.99,,,0.86,7,weatherlink.com 1.10,2013-05-02 19:28:00,
2013-05-02 15:43:00,72.1,69.0,29.82,NE,36,5.0,-999.0,90,-99.99,,,1.00,0,weatherlink.com 1.10,2013-05-02 19:43:00,
2013-05-02 15:58:00,69.3,67.0,29.84,West,278,10.0,-999.0,91,-99.99,,,1.19,0,weatherlink.com 1.10,2013-05-02 19:58:00,
2013-05-02 16:13:00,69.2,67.0,29.84,WNW,285,1.0,-999.0,93,-99.99,,,1.52,0,weatherlink.com 1.10,2013-05-02 20:13:00,
2013-05-02 16:28:00,69.0,67.0,29.83,WNW,301,6.0,-999.0,94,-99.99,,,1.86,5,weatherlink.com 1.10,2013-05-02 20:28:00,
2013-05-02 16:43:00,69.1,67.0,29.84,NNE,27,3.0,-999.0,94,-99.99,,,2.15,7,weatherlink.com 1.10,2013-05-02 20:43:00,
2013-05-02 16:58:00,68.7,67.0,29.84,NE,53,2.0,-999.0,94,-99.99,,,2.43,16,weatherlink.com 1.10,2013-05-02 20:58:00,
2013-05-02 17:13:00,68.6,67.0,29.85,NNE,15,2.0,-999.0,95,-99.99,,,2.67,11,weatherlink.com 1.10,2013-05-02 21:13:00,
2013-05-02 17:28:00,68.5,67.0,29.84,NNE,18,1.0,-999.0,95,-99.99,,,2.87,11,weatherlink.com 1.10,2013-05-02 21:28:00,
2013-05-02 17:43:00,67.6,66.0,29.84,NE,51,6.0,-999.0,95,-99.99,,,3.00,12,weatherlink.com 1.10,2013-05-02 21:43:00,
2013-05-02 17:58:00,67.9,67.0,29.82,NE,35,9.0,-999.0,95,-99.99,,,3.05,39,weatherlink.com 1.10,2013-05-02 21:58:00,
2013-05-02 18:13:00,69.5,68.0,29.82,NE,51,15.0,-999.0,96,-99.99,,,3.06,19,weatherlink.com 1.10,2013-05-02 22:13:00,
2013-05-02 18:28:00,69.0,68.0,29.81,East,80,6.0,-999.0,95,-99.99,,,3.07,16,weatherlink.com 1.10,2013-05-02 22:28:00,
2013-05-02 18:43:00,69.5,68.0,29.80,East,88,5.0,-999.0,95,-99.99,,,3.09,11,weatherlink.com 1.10,2013-05-02 22:43:00,
2013-05-02 18:58:00,69.3,68.0,29.79,NE,48,16.0,-999.0,95,-99.99,,,3.11,12,weatherlink.com 1.10,2013-05-02 22:58:00,
2013-05-02 19:13:00,69.2,68.0,29.79,ENE,63,11.0,-999.0,95,-99.99,,,3.12,9,weatherlink.com 1.10,2013-05-02 23:13:00,
2013-05-02 19:28:00,69.9,69.0,29.77,ENE,58,10.0,-999.0,95,-99.99,,,3.12,5,weatherlink.com 1.10,2013-05-02 23:28:00,
2013-05-02 19:44:00,70.3,69.0,29.77,NNE,33,8.0,-999.0,95,-99.99,,,3.12,5,weatherlink.com 1.10,2013-05-02 23:44:00,
2013-05-02 19:59:00,70.6,69.0,29.78,East,90,6.0,-999.0,95,-99.99,,,3.12,0,weatherlink.com 1.10,2013-05-02 23:59:00,
2013-05-02 20:14:00,70.4,69.0,29.79,NE,44,11.0,-999.0,94,-99.99,,,3.12,0,weatherlink.com 1.10,2013-05-03 00:14:00,
2013-05-02 20:29:00,70.9,69.0,29.79,NE,47,12.0,-999.0,93,-99.99,,,3.12,0,weatherlink.com 1.10,2013-05-03 00:29:00,
2013-05-02 20:44:00,71.4,69.0,29.79,NE,55,8.0,-999.0,92,-99.99,,,3.12,0,weatherlink.com 1.10,2013-05-03 00:44:00,
2013-05-02 20:59:00,72.1,69.0,29.80,NNE,27,5.0,-999.0,90,-99.99,,,3.12,0,weatherlink.com 1.10,2013-05-03 00:59:00,
2013-05-02 21:14:00,72.7,69.0,29.81,NE,48,5.0,-999.0,89,-99.99,,,3.12,0,weatherlink.com 1.10,2013-05-03 01:14:00,
2013-05-02 21:29:00,72.9,70.0,29.81,NE,52,3.0,-999.0,89,-99.99,,,3.12,0,weatherlink.com 1.10,2013-05-03 01:29:00,
2013-05-02 21:44:00,73.4,70.0,29.81,NE,47,3.0,-999.0,89,-99.99,,,3.12,0,weatherlink.com 1.10,2013-05-03 01:44:00,
2013-05-02 21:59:00,73.6,70.0,29.82,ENE,63,4.0,-999.0,89,-99.99,,,3.12,0,weatherlink.com 1.10,2013-05-03 01:59:00,
2013-05-02 22:29:00,74.0,71.0,29.82,ENE,78,4.0,-999.0,89,-99.99,,,3.12,0,weatherlink.com 1.10,2013-05-03 02:29:00,
2013-05-02 22:44:00,73.6,70.0,29.83,NE,44,3.0,-999.0,89,-99.99,,,3.12,0,weatherlink.com 1.10,2013-05-03 02:44:00,
2013-05-02 22:59:00,73.6,70.0,29.82,ENE,66,3.0,-999.0,89,-99.99,,,3.12,0,weatherlink.com 1.10,2013-05-03 02:59:00,
2013-05-02 23:14:00,73.7,70.0,29.81,ENE,74,5.0,-999.0,89,-99.99,,,3.12,0,weatherlink.com 1.10,2013-05-03 03:14:00,
2013-05-02 23:29:00,74.1,71.0,29.81,ENE,69,0.0,-999.0,89,-99.99,,,3.12,0,weatherlink.com 1.10,2013-05-03 03:29:00,
2013-05-02 23:44:00,74.3,71.0,29.80,ENE,74,0.0,-999.0,89,-99.99,,,3.12,0,weatherlink.com 1.10,2013-05-03 03:44:00,
2013-05-02 23:59:00,74.2,71.0,29.81,ESE,112,4.0,-999.0,89,-99.99,,,0.01,0,weatherlink.com 1.10,2013-05-03 03:59:00,